Waco, TX

5:19 PM CDT on April 28, 2017 (GMT -0500)
Waco Regional

Weather History for KACT - March, 2014

Change the Weather History Date:

Sunday, March 23, 2014

  Actual Average Record
Temperature  
Mean Temperature 49 °F 60 °F  
Max Temperature 53 °F 71 °F 90 °F (1929)
Min Temperature 45 °F 49 °F 30 °F (1968)
Degree Days  
Heating Degree Days 16 6  
Month to date heating degree days 302 202  
Since 1 July heating degree days 2445 2014  
Cooling Degree Days 0 1  
Month to date cooling degree days 4 22  
Year to date cooling degree days 4 31  
Moisture  
Dew Point 40 °F    
Average Humidity 70    
Maximum Humidity 93    
Minimum Humidity 46    
Precipitation  
Precipitation 0.16 in 0.09 in 0.80 in (1969)
Month to date precipitation 0.58 2.44  
Year to date precipitation 1.34 7.19  
Snow  
Snow 0.00 in 0.00 in 0.00 in ()
Month to date snowfall 0.1 0.1  
Since 1 July snowfall 0.1 0.9  
Snow Depth 0.00 in    
Sea Level Pressure  
Sea Level Pressure 30.23 in    
Wind  
Wind Speed 12 mph (North)    
Max Wind Speed 28 mph    
Max Gust Speed 32 mph    
Visibility 10 miles    
Events Rain , Thunderstorm    
T = Trace of Precipitation, MM = Missing Value Source: NWS Daily Summary

Daily Weather History Graph

Daily Weather History Graph

Search for Another Location

Airport or City:

Trip Planner

Search our weather history database for the weather conditions in past years. The results will help you decide how hot, cold, wet, or windy it might be!

Date:

Astronomy

Mar. 23, 2014 Rise Set
Actual Time 7:28 AM CDT 7:42 PM CDT
Civil Twilight 7:04 AM CDT 8:06 PM CDT
Nautical Twilight 6:36 AM CDT 8:35 PM CDT
Astronomical Twilight 6:07 AM CDT 9:03 PM CDT
Moon 1:43 AM CDT (3/23) 12:28 PM CDT (3/23)
Length of Visible Light 13h 02m
Length of Day
12h 13m
Waning Gibbous, 54% of the Moon is Illuminated
Mar 23
Waning Gibbous
Mar 23
Last Quarter
Mar 30
New
Apr 7
First Quarter
Apr 15
Full

Hourly Weather History & Observations

Time (CDT) Temp. Windchill Dew Point Humidity Pressure Visibility Wind Dir Wind Speed Gust Speed Precip Events Conditions
12:51 AM 53.1 °F - 46.0 °F 77% 30.09 in 10.0 mi North 13.8 mph - N/A   Overcast
1:51 AM 52.0 °F - 46.0 °F 80% 30.10 in 10.0 mi North 12.7 mph - N/A   Overcast
2:51 AM 53.1 °F - 45.0 °F 74% 30.10 in 10.0 mi North 12.7 mph - N/A   Overcast
3:01 AM 53.6 °F - 44.6 °F 72% 30.12 in 10.0 mi North 18.4 mph - N/A   Overcast
3:19 AM 53.6 °F - 44.6 °F 72% 30.11 in 10.0 mi North 13.8 mph - N/A   Overcast
3:51 AM 53.1 °F - 43.0 °F 69% 30.12 in 10.0 mi North 16.1 mph - N/A   Overcast
4:51 AM 53.1 °F - 41.0 °F 64% 30.14 in 10.0 mi North 16.1 mph - N/A   Overcast
5:51 AM 53.1 °F - 39.0 °F 59% 30.16 in 10.0 mi North 20.7 mph 27.6 mph N/A   Overcast
6:51 AM 52.0 °F - 39.0 °F 61% 30.21 in 10.0 mi North 17.3 mph 26.5 mph N/A   Overcast
7:51 AM 51.1 °F - 41.0 °F 68% 30.24 in 10.0 mi NNE 20.7 mph 25.3 mph N/A   Overcast
8:51 AM 51.1 °F - 41.0 °F 68% 30.26 in 10.0 mi North 23.0 mph - N/A   Overcast
9:51 AM 51.1 °F - 37.9 °F 61% 30.29 in 10.0 mi North 18.4 mph 24.2 mph N/A   Overcast
10:51 AM 51.1 °F - 35.1 °F 54% 30.30 in 10.0 mi North 24.2 mph 28.8 mph N/A   Overcast
11:51 AM 53.1 °F - 37.0 °F 55% 30.29 in 10.0 mi NNE 19.6 mph 28.8 mph N/A   Overcast
12:51 PM 53.1 °F - 34.0 °F 48% 30.28 in 10.0 mi North 15.0 mph 24.2 mph N/A   Overcast
1:44 PM 48.2 °F - 33.8 °F 58% 30.32 in 10.0 mi North 9.2 mph 27.6 mph 0.00 in Rain , Thunderstorm Light Rain
1:51 PM 48.9 °F - 34.0 °F 56% 30.30 in 10.0 mi North 17.3 mph - 0.00 in Rain , Thunderstorm Light Rain
1:59 PM 48.2 °F - 33.8 °F 58% 30.28 in 10.0 mi North 19.6 mph - 0.00 in Rain Light Rain
2:37 PM 46.4 °F 41.5 °F 37.4 °F 71% 30.28 in 10.0 mi North 10.4 mph - 0.01 in Rain , Thunderstorm Light Thunderstorms and Rain
2:51 PM 46.0 °F 41.9 °F 37.9 °F 73% 30.28 in 10.0 mi NNW 8.1 mph - 0.01 in Rain Light Rain
3:51 PM 45.0 °F 41.2 °F 41.0 °F 86% 30.28 in 7.0 mi WNW 6.9 mph - 0.05 in Rain Light Rain
4:51 PM 46.0 °F 41.9 °F 39.9 °F 79% 30.25 in 10.0 mi NNW 8.1 mph - 0.03 in   Overcast
5:51 PM 46.0 °F 44.8 °F 41.0 °F 83% 30.26 in 8.0 mi WNW 3.5 mph - 0.06 in   Overcast
6:51 PM 46.9 °F - 41.0 °F 80% 30.25 in 10.0 mi WNW 4.6 mph - 0.01 in   Overcast
7:51 PM 46.9 °F - 43.0 °F 86% 30.25 in 10.0 mi Calm Calm - N/A   Overcast
8:51 PM 46.9 °F - 44.1 °F 90% 30.25 in 10.0 mi Calm Calm - N/A   Overcast
9:51 PM 48.0 °F - 43.0 °F 83% 30.26 in 10.0 mi Calm Calm - N/A   Overcast
10:51 PM 48.0 °F - 42.1 °F 80% 30.27 in 10.0 mi NW 5.8 mph - N/A   Overcast
11:51 PM 48.0 °F - 42.1 °F 80% 30.26 in 10.0 mi WNW 3.5 mph - N/A   Overcast